Location: Croydon
(51.3762°N, 0.0982°W)
Time: 08:52:50
(UTC+00:00)

Vanguard 1 Rocket - Visible Passes

Search period start: 18 November 2019 00:00
Search period end: 28 November 2019 00:00
Orbit: 651 x 4226 km, 34.3° (Epoch: 17 November)

Date Brightness Start Highest point End Pass type
(mag) Time Alt. Az. Time Alt. Az. Time Alt. Az.
18 Nov 9.3 05:26:23 10° SSW 05:28:46 13° S 05:31:31 10° SE visible
19 Nov 9.5 06:39:30 10° SSW 06:42:04 13° S 06:45:08 10° SSE visible
20 Nov 9.3 05:29:31 10° SSW 05:31:25 12° S 05:33:34 10° SSE visible
21 Nov 9.3 04:21:06 10° S 04:21:06 10° S 04:21:32 10° SSE visible
21 Nov 9.8 06:44:26 10° S 06:44:46 10° S 06:45:07 10° S visible
22 Nov 9.3 05:33:25 10° SSW 05:34:06 10° S 05:34:49 10° S visible
